Regional Weather Roundup
Issued by NWS New Orleans/Baton Rouge, LA

Home | Current Version | Previous Version | Graphics & Text | Print | Product List | Glossary On
Versions: 1 2 3 4 5 6 7 8 9 10 11 12 13 14 15 16 17 18 19 20 21 22 23 24 25 26 27 28 29 30 31 32 33 34 35 36 37 38 39 40 41 42 43 44 45 46 47 48 49 50
200
ASUS44 KLIX 241510
RWRLIX
NEW ORLEANS REGIONAL WEATHER ROUNDUP
NATIONAL WEATHER SERVICE NEW ORLEANS LA
1000 AM CDT FRI OCT 24 2014

NOTE: "FAIR" INDICATES FEW OR NO CLOUDS BELOW 12,000 FEET WITH NO
      SIGNIFICANT WEATHER AND/OR OBSTRUCTIONS TO VISIBILITY.
      SKY/WX - SKY CONDITION AND SIGNIFICANT WEATHER.
      TMP - AIR TEMPERATURE.     DP    - DEWPOINT TEMPERATURE.
      RH  - RELATIVE HUMIDITY.   PRES  - PRESSURE.
      HI  - HEAT INDEX.          WCI   - WIND CHILL INDEX.

*  THESE STATIONS ARE NOT NWS OR FAA STATIONS AND ARE NOT UNDER
   NWS QUALITY CONTROL.

LAZ038-040-048-061>063-065>067-069-241600-
SOUTHEAST LOUISIANA

CITY           SKY/WX    TMP DP  RH WIND       PRES   REMARKS
N.O. AUDUBON     N/A     70  53  55 MISG        N/A
N.O. INTL ARPT MOSUNNY   67  54  63 N7        30.12S
N.O. LAKEFRONT SUNNY     65  53  65 NE8       30.13R
N.O. DOWNTOWN*   N/A     66  48  52 NE3       30.12S
SLIDELL        SUNNY     63  51  65 NE3       30.12S
BATON ROUGE    SUNNY     62  50  64 NE5       30.15R
BOOTHVILLE     SUNNY     72  55  55 NE6       30.11R
BELLE CHASSE   SUNNY     68  55  63 VRB3      30.12R
BOGALUSA*        N/A     63  50  63 CALM      30.14F
NEW ROADS*       N/A     58  51  77 CALM      30.15F
GONZALES*        N/A     63  52  67 CALM      30.13S
HAMMOND*       SUNNY     64  50  59 N3        30.14F
HOUMA*         SUNNY     64  55  72 N7        30.12S
PORT FOURCHON* SUNNY     68  57  68 NE8       30.14S

$$

MSZ070-080>082-241600-
SOUTHERN MISSISSIPPI

CITY           SKY/WX    TMP DP  RH WIND       PRES   REMARKS
MCCOMB         SUNNY     61  48  62 N6        30.14S
GULFPORT       MOSUNNY   63  49  60 N5        30.11S
BILOXI         SUNNY     64  50  60 N5        30.11S
PASCAGOULA     SUNNY     65  50  58 N5        30.11R
STENNIS ARPT*  SUNNY     63  46  55 CALM      30.12S

$$

COASTAL OBSERVATIONS
LAKE AND NEARSHORE STATIONS

STATION/POSITION TIME  TEMP    WIND        PRES    WAVE
                       AIR SEA DIR/SP/G            HT/PER
                 (UTC) (F)     (DEG/KT/KT) (MB)    (FT/S)
PASCAGOULA       1500   66      30/  5/  7 1018.8
WAVELAND YACHT   1500   61      10/  5/  6 1018.9
GRAND ISLE       1500   67 73   50/  6/  9 1019.8
SOUTHWEST PASS   1500   72 80   30/ 11/ 13 1019.4
NEW CANAL        1500   63 69   50/  7/  9 1020.3
SHELL BEACH      1500   65 65   40/  8/  9 1019.5

OFFSHORE STATIONS

STATION/POSITION TIME  TEMP    WIND        PRES    WAVE
                       AIR SEA DIR/SP/G            HT/PER
                 (UTC) (F)     (DEG/KT/KT) (MB)    (FT/S)
64 S DAUPHIN ISL 1425   71 79   10/ 10/ 14 1019.2    3/ 7

$$




USA.gov is the U.S. government's official web portal to all federal, state and local government web resources and services.